RH
66 55 74 88 71 71 91 89 82 62 58 44 36 34 32 33 34 30 33 35 52 60 64 56 59 60 61 61 63 64 64 65 66 68 70 72 75 79 81 83 83 84 84 86
98 89 97 92 70 61 64 68 75 66 62 42 40 38 37 35 35 36 33 35 38 55 58 56 55 56 58 60 63 64 66 66 68 70 72 76 79 83 86 87 90 90 90 88
98 98 100 99 92 66 59 55 59 79 57 43 45 41 39 38 37 37 36 35 37 47 56 51 52 53 55 58 62 65 67 69 71 73 77 80 84 87 93 95 94 95 96 96
99 98 97 56 48 55 55 51 50 49 47 44 43 39 39 37 36 38 37 37 37 42 48 47 49 51 54 58 62 65 67 69 72 75 78 82 87 91 98 96 96 98 100 98
98 95 56 45 50 55 64 62 48 48 43 38 35 42 47 47 48 49 48 41 36 33 34 45 48 50 53 56 62 65 66 68 71 74 80 84 90 94 98 96 97 99 99 98
98 97 89 50 42 35 38 63 46 40 44 51 54 75 66 53 51 52 54 50 40 36 35 44 48 50 52 58 62 67 67 69 72 77 81 87 94 99 99 99 99 100 99 97
94 95 65 48 45 40 56 70 54 52 55 56 66 64 57 54 56 59 58 56 47 41 46 43 50 52 55 59 62 65 68 71 75 79 83 88 96 98 100 100 100 99 98 95
89 96 90 49 49 49 54 45 43 48 54 57 53 50 49 53 56 60 64 59 57 58 63 56 53 54 58 62 64 65 69 73 78 82 88 92 98 100 100 100 100 95 91 81
97 78 50 44 46 41 43 43 44 52 56 56 52 50 49 58 58 61 61 61 69 73 73 69 64 61 67 72 68 69 74 82 86 91 94 96 97 100 100 100 99 93 81 73
82 55 62 55 43 51 48 45 42 45 50 54 52 53 58 58 59 62 60 62 68 74 80 78 71 70 71 76 77 79 84 89 93 96 98 99 100 100 100 99 96 88 74 67
77 62 59 56 59 57 56 52 42 41 44 57 58 60 58 60 60 61 60 59 58 63 69 71 71 70 76 79 81 82 84 88 92 93 98 99 99 99 99 99 97 88 75 65
61 52 69 69 47 58 66 65 58 48 54 60 58 65 63 68 61 58 61 61 63 62 65 68 69 71 72 75 76 78 80 83 87 90 96 99 99 99 100 100 99 99 82 62
55 62 58 52 49 64 66 70 66 61 57 67 66 65 65 74 70 65 66 67 65 66 71 75 78 78 80 81 81 80 77 79 85 91 97 99 100 100 100 100 99 99 97 77
51 44 61 46 56 52 66 69 65 67 67 66 66 66 68 72 70 74 78 78 76 73 72 70 70 72 73 79 83 80 82 89 92 94 95 99 100 99 99 100 100 99 99 96
70 42 54 61 66 76 70 70 68 73 72 69 67 68 67 74 77 76 75 75 75 75 77 78 78 77 75 76 82 90 95 96 94 93 95 97 100 100 100 100 100 98 90 82
77 68 59 69 81 80 76 74 74 72 71 72 71 69 68 66 68 69 72 73 76 82 84 88 90 92 90 85 84 88 90 92 93 94 98 100 100 100 100 100 100 99 94 80
83 80 64 69 72 77 75 72 72 73 72 74 71 66 65 65 67 68 70 72 77 87 92 92 95 89 88 94 96 93 94 95 97 100 100 100 100 100 100 100 100 99 97 94
72 68 71 83 83 84 78 74 73 72 74 71 72 71 75 80 85 86 87 80 83 93 92 98 97 93 94 97 100 100 100 100 100 100 100 100 100 100 100 100 100 100 99 99
84 89 91 93 95 93 92 88 87 86 84 83 81 86 84 79 78 79 88 86 85 91 89 85 79 100 100 100 100 100 100 100 100 100 100 100 100 100 100 100 100 99 100 100
97 99 99 99 99 99 97 100 98 91 74 67 64 64 66 69 70 79 88 82 82 85 89 79 86 89 97 98 99 99 100 100 100 100 100 100 100 100 100 100 100 99 100 100
100 96 95 95 96 100 100 99 89 71 62 63 63 67 69 68 72 76 77 85 83 76 83 80 90 90 93 94 96 97 100 99 99 100 100 100 100 100 100 100 100 99 99 99
95 99 95 98 84 63 51 57 61 63 63 64 63 57 55 58 63 78 79 76 69 84 77 82 87 96 99 89 90 100 98 99 100 100 99 100 99 99 99 99 99 99 99 99
96 82 69 66 68 62 49 41 48 51 58 59 58 55 57 58 58 73 74 74 58 61 65 67 80 94 92 71 75 81 91 97 100 99 99 99 100 100 100 99 99 99 99 99
99 99 95 69 54 54 54 40 38 45 48 49 48 51 52 60 58 66 59 56 57 55 58 61 61 63 68 60 62 72 75 76 81 83 86 95 92 94 98 98 99 98 99 100
100 99 100 99 83 63 49 44 43 40 41 44 45 45 46 52 56 57 51 49 50 51 52 53 53 56 58 60 63 68 70 72 77 88 78 80 81 88 92 94 93 95 97 98
100 100 99 99 98 98 85 50 49 47 44 45 42 42 44 46 50 53 52 49 49 49 49 49 50 54 57 59 61 64 66 67 68 69 78 77 77 78 89 88 87 89 94 97
78 89 98 97 89 86 83 65 53 51 48 48 48 44 41 44 45 51 53 52 49 49 50 52 53 53 57 59 62 64 66 68 72 81 83 79 76 77 82 85 88 100 100 100
Wind_Speed
13 7 5 3 9 16 18 14 10 7 15 13 11 10 4 7 9 5 6 5 7 8 7 17 22 22 21 19 20 19 19 17 16 14 13 11 9 8 6 5 5 4 1 4
10 3 3 4 11 12 19 18 17 13 18 10 11 13 14 9 8 6 3 6 7 9 10 15 20 23 24 24 22 20 19 18 17 15 15 12 10 8 7 5 4 4 5 6
1 7 4 4 13 15 11 14 15 16 19 12 12 9 7 7 7 7 6 6 7 8 11 18 23 24 24 24 22 20 19 18 17 15 14 12 11 10 8 5 4 3 3 3
3 7 4 4 3 19 16 13 14 13 9 10 8 6 7 5 4 6 7 7 6 6 18 24 24 27 26 25 25 23 20 20 18 17 15 15 12 9 8 6 5 6 6 5
3 4 2 2 2 5 8 8 9 10 9 7 5 2 6 6 4 4 7 8 10 13 13 25 27 28 29 28 27 24 22 21 19 18 17 16 12 11 10 9 10 10 8 7
3 2 1 3 1 3 4 3 4 5 4 4 5 0 3 4 5 6 9 13 12 5 5 18 26 29 29 27 25 24 22 21 19 19 18 17 14 13 13 11 11 10 10 9
5 3 5 6 6 2 1 2 3 3 3 1 2 3 1 5 5 6 7 10 7 3 2 9 25 28 24 22 22 20 19 18 18 17 17 15 12 14 11 12 12 12 11 10
4 3 4 3 3 2 1 2 2 2 1 2 2 3 2 3 4 5 5 7 7 5 9 15 23 25 20 20 18 18 19 19 17 17 17 14 14 12 13 14 14 13 12 12
3 1 3 4 3 5 5 2 3 3 2 3 3 2 1 3 4 4 5 4 8 11 12 11 12 14 15 15 18 18 18 17 17 16 13 13 13 15 15 16 16 15 16 15
5 3 4 9 5 9 8 5 4 4 4 2 1 2 4 4 3 4 5 6 8 9 9 9 9 8 11 15 16 18 17 17 16 14 13 12 13 15 16 18 17 15 17 16
5 10 9 6 9 10 10 8 4 3 4 3 2 4 4 3 4 5 7 7 7 9 11 11 11 11 12 13 15 15 14 15 16 14 14 14 14 16 18 18 19 18 18 17
4 5 4 6 14 11 10 7 8 5 2 3 2 5 5 5 6 6 7 7 7 7 9 9 8 9 9 11 12 13 14 16 17 15 13 14 14 15 14 15 15 15 13 13
4 4 4 9 8 7 8 9 7 5 3 5 5 7 8 5 7 9 9 8 6 4 2 3 4 6 7 9 11 13 14 16 15 14 15 16 16 17 16 15 15 15 17 20
11 6 6 4 5 8 7 7 6 7 9 7 6 7 9 9 10 10 9 7 6 5 4 2 2 4 6 8 10 13 14 13 16 16 16 16 16 18 17 15 16 19 20 20
11 7 6 7 5 7 8 5 3 2 3 4 6 7 8 8 8 8 7 7 5 8 7 6 5 6 6 7 12 13 14 15 16 16 16 16 16 17 18 18 17 16 15 17
11 10 7 5 6 6 5 6 4 4 4 3 6 8 8 8 8 8 8 9 9 8 7 6 5 5 5 6 8 10 12 14 15 16 16 15 16 17 18 19 19 20 21 22
7 7 5 7 6 6 5 4 4 5 5 7 6 5 6 5 8 7 7 7 5 6 6 7 7 8 7 5 7 10 12 13 14 16 18 19 19 19 19 19 20 20 22 22
5 6 5 5 7 5 3 4 4 7 5 6 5 5 6 7 5 5 6 6 5 5 10 8 9 8 7 7 6 8 10 12 13 17 19 19 21 21 22 22 22 22 23 24
5 4 6 6 7 4 6 8 9 8 7 5 5 6 6 6 5 4 4 6 7 5 9 10 11 8 8 9 8 7 7 10 12 14 15 18 17 20 21 21 22 23 23 23
2 4 5 5 9 8 8 6 4 4 4 5 5 4 5 5 5 4 3 5 6 5 8 9 9 11 12 11 11 10 9 8 10 12 14 15 16 18 19 21 21 22 21 22
3 3 3 4 6 6 5 4 2 2 5 5 4 4 3 3 4 4 3 2 5 9 8 7 7 11 11 11 9 9 8 9 9 10 12 13 15 16 17 18 19 20 21 21
4 4 5 6 5 5 4 4 4 4 4 4 4 3 3 3 4 3 3 3 5 7 7 7 8 10 11 9 8 8 8 9 9 10 10 10 11 13 14 14 15 17 18 18
4 4 4 4 4 4 4 4 3 2 1 1 2 2 3 3 3 3 0 2 5 6 6 6 9 10 11 9 9 9 8 9 9 9 10 11 12 12 13 13 14 14 16 17
3 2 2 6 6 5 5 4 4 4 4 3 3 3 3 3 3 2 3 5 5 7 6 7 9 9 9 9 9 9 9 9 9 10 10 9 11 12 13 14 15 16 16 16
6 5 5 5 5 7 7 7 7 7 7 8 7 6 5 5 5 4 6 6 6 6 7 7 8 8 9 9 10 10 11 11 11 12 13 14 15 15 15 15 16 16 16 18
10 10 12 10 11 11 11 9 10 9 8 9 9 8 8 7 7 8 7 7 7 7 7 7 8 8 9 10 11 12 13 14 15 16 16 18 18 18 18 20 20 19 19 20
12 12 12 12 12 13 14 15 13 15 11 11 12 9 8 8 9 9 9 9 8 8 8 7 8 8 10 11 13 14 15 16 17 18 19 19 20 20 20 21 21 20 19 21
Wind_Direction
259 212 149 168 231 206 207 213 206 211 231 248 274 286 283 219 233 229 158 157 178 178 186 185 180 181 178 174 174 176 172 172 174 174 176 178 178 182 198 209 209 201 238 318
238 196 331 238 235 220 219 218 238 256 260 261 284 297 295 288 292 298 263 188 208 184 182 187 181 177 177 177 180 181 180 179 180 181 180 180 184 187 211 223 228 227 200 237
205 166 157 253 225 229 218 222 221 227 239 256 258 261 268 272 257 259 259 249 231 191 183 190 187 183 183 177 177 182 182 181 183 183 183 184 194 200 218 217 216 214 208 204
304 131 213 222 4 206 209 212 225 242 244 250 253 268 289 293 297 294 281 270 272 203 189 197 189 186 182 182 184 184 186 186 187 187 187 187 194 196 199 214 217 201 198 192
249 211 359 207 204 146 178 245 231 240 246 264 269 50 317 1 25 357 316 255 263 244 215 201 187 182 178 180 181 183 186 187 188 190 187 194 196 200 207 212 211 210 206 197
322 327 257 8 74 40 106 269 36 123 115 77 85 185 257 350 341 314 322 319 304 218 187 194 181 177 175 178 181 185 190 189 192 193 197 199 197 201 204 212 213 206 201 199
241 264 269 168 159 149 92 228 87 84 90 83 203 202 276 359 352 346 318 317 337 111 318 201 171 169 170 176 188 193 192 192 190 194 198 203 205 201 207 207 205 204 209 207
190 247 261 114 61 162 134 52 53 168 88 36 20 357 347 7 14 8 4 348 8 94 87 137 155 166 166 182 191 189 187 188 189 194 198 204 211 210 208 208 205 203 205 206
251 14 342 246 346 329 350 344 7 50 76 46 7 340 75 71 58 47 50 38 70 94 86 89 119 154 158 163 175 177 182 182 184 187 202 205 206 206 206 209 209 205 206 206
352 101 14 335 351 23 2 323 342 6 5 90 337 6 69 84 82 89 71 74 106 111 109 113 127 135 170 174 182 179 176 177 183 187 200 212 215 215 214 210 206 208 209 213
277 294 306 61 45 7 334 336 325 303 299 347 14 97 98 103 91 92 95 81 82 113 125 131 141 136 159 171 175 174 177 182 185 189 199 212 223 225 225 228 222 209 218 223
221 19 334 329 341 348 354 339 338 317 175 60 19 103 97 84 86 79 92 87 84 88 114 132 149 159 165 172 182 181 185 186 192 196 205 218 231 233 233 236 228 221 224 230
337 20 302 275 308 352 342 329 337 328 89 118 51 85 97 89 81 84 78 67 62 69 115 171 181 196 204 200 202 202 202 198 203 208 209 216 224 229 223 228 230 227 231 230
322 322 295 306 297 319 323 328 357 43 58 87 97 85 104 108 89 80 67 58 60 64 61 38 314 285 267 237 220 217 220 221 221 219 221 228 232 234 236 230 224 232 235 239
291 266 243 284 299 300 311 325 290 113 99 90 98 93 92 88 84 79 62 47 53 65 58 43 19 351 307 268 243 242 239 233 231 232 236 240 242 240 238 239 238 242 248 249
304 306 308 305 298 298 303 315 299 147 131 118 85 70 75 81 83 75 58 46 57 46 38 29 46 358 338 298 269 254 252 246 242 239 237 239 239 240 237 237 240 244 244 245
280 277 327 325 310 321 342 7 17 102 101 92 88 76 71 73 91 58 36 23 38 72 52 33 4 350 344 311 282 268 264 257 249 247 244 244 246 245 243 242 240 240 247 256
300 303 332 340 306 306 326 41 59 77 87 102 101 88 73 64 60 41 19 21 60 72 38 18 360 8 4 350 313 276 270 268 258 247 250 250 251 253 252 248 248 247 253 259
15 6 353 13 355 40 63 54 45 53 57 66 86 80 83 74 56 34 32 49 40 37 1 1 1 7 2 1 355 335 288 274 273 271 265 263 251 253 254 254 254 256 257 256
15 33 33 37 50 52 61 61 64 45 41 62 77 80 77 51 34 29 51 74 49 15 352 2 8 11 6 3 357 348 342 317 293 282 276 270 265 260 261 265 265 264 264 264
29 36 52 59 56 56 61 49 25 45 44 47 64 64 62 36 25 16 41 133 13 358 2 3 3 1 4 354 347 0 2 353 339 327 311 293 282 276 274 273 271 270 270 273
43 51 60 69 54 47 33 24 20 20 29 31 30 26 19 23 17 27 38 46 353 351 360 360 353 1 356 356 6 3 359 359 356 350 341 331 322 308 299 296 290 287 286 284
76 39 27 25 18 352 331 339 339 344 348 359 355 349 1 346 343 358 103 325 335 342 351 350 352 356 358 0 7 11 5 0 354 347 343 336 329 323 318 313 307 302 298 295
154 141 352 343 337 319 305 314 300 294 293 287 283 290 306 333 318 287 298 314 326 335 343 344 349 351 351 355 358 356 353 348 342 335 331 323 319 319 317 316 314 311 308 303
227 232 255 283 302 290 292 291 290 287 289 287 283 277 272 261 255 267 294 304 312 320 329 335 336 340 346 348 347 344 341 338 335 328 326 323 321 314 311 312 311 309 307 303
255 245 254 260 258 268 277 276 263 275 269 271 278 273 267 261 263 269 282 292 299 307 314 322 328 331 335 338 337 335 333 332 329 327 324 321 321 317 312 310 310 308 300 294
276 273 268 271 269 266 266 263 256 263 263 260 265 270 263 253 260 264 274 281 285 291 298 307 315 323 326 327 329 329 330 330 328 323 319 318 317 315 313 311 310 306 300 301